Date String (YYYY-MM-DD hh:mm:ss) UTC,Instrument flags,Ambient pressure (hPa),Sample flow (lpm),Bypass flow (lpm),Sample temperature (°C),Ambient temperature (°C),ASC tube jacket temperature (°C),LED temperature (°C),Box temperature (°C),Sample RH (%),Span deviation,Mass concentration (μg/m³),Mass concentration (μg/m³),Mass concentration (μg/m³)
DateTimeUTC,F1_M11,P_M11,Q1_M11,Q2_M11,T1_M11,T2_M11,T3_M11,T4_M11,T5_M11,U1_M11,ZSPAN_M11,X0_M11,X2_M11,X1_M11
2022-10-18 22:00:00,,0832.5,5.00,0.00,29.9,28.0,00.0,38.7,31.7,11.1,0000.0,0015.58,0004.96,0004.18
2022-10-18 22:01:00,,0832.4,5.00,0.00,29.9,28.3,00.0,38.7,31.7,11.2,0000.0,0015.54,0004.99,0004.19
2022-10-18 22:02:00,,0832.5,5.00,0.00,30.0,28.5,00.0,38.7,31.7,11.2,0000.0,0016.06,0004.99,0004.18
2022-10-18 22:03:00,,0832.5,5.01,0.00,30.0,28.6,00.0,38.7,31.8,11.2,0000.0,0016.01,0005.01,0004.19
2022-10-18 22:04:00,,0832.5,5.00,0.00,30.0,28.8,00.0,38.7,31.8,11.2,0000.0,0015.32,0005.01,0004.18
2022-10-18 22:05:00,,0832.4,4.99,0.00,30.0,28.8,00.0,38.7,31.9,11.1,0000.0,0013.44,0005.05,0004.18
2022-10-18 22:06:00,,0832.4,5.02,0.00,30.1,29.0,00.0,38.8,31.9,11.0,0000.0,0012.38,0005.07,0004.17
2022-10-18 22:07:00,,0832.5,4.99,0.00,30.1,29.1,00.0,38.8,32.0,11.0,0000.0,0012.72,0005.12,0004.17
2022-10-18 22:08:00,,0832.4,5.02,0.00,30.1,29.1,00.0,38.8,32.0,11.0,0000.0,0012.96,0005.11,0004.18
2022-10-18 22:09:00,,0832.4,4.98,0.00,30.1,28.4,00.0,38.8,32.0,11.0,0000.0,0013.45,0005.11,0004.18
2022-10-18 22:10:00,,0832.5,5.01,0.00,30.1,26.7,00.0,38.8,31.7,11.0,0000.0,0013.39,0005.10,0004.18
2022-10-18 22:11:00,,0832.4,5.00,0.00,30.0,26.1,00.0,38.7,31.7,11.1,0000.0,0013.19,0005.11,0004.18
2022-10-18 22:12:00,,0832.4,4.99,0.00,29.9,26.3,00.0,38.7,31.5,11.1,0000.0,0013.12,0005.08,0004.17
2022-10-18 22:13:00,,0832.4,5.00,0.00,29.8,26.7,00.0,38.6,31.4,11.2,0000.0,0012.65,0005.11,0004.17
2022-10-18 22:14:00,,0832.4,5.01,0.00,29.8,27.0,00.0,38.6,31.4,11.2,0000.0,0012.67,0005.10,0004.17
2022-10-18 22:15:00,,0832.4,4.99,0.00,29.7,27.4,00.0,38.6,31.4,11.3,0000.0,0012.96,0005.08,0004.17
2022-10-18 22:16:00,,0832.5,5.01,0.00,29.7,27.7,00.0,38.6,31.5,11.4,0000.0,0013.56,0005.06,0004.16
2022-10-18 22:17:00,,0832.5,5.01,0.00,29.8,28.0,00.0,38.6,31.5,11.3,0000.0,0014.43,0005.04,0004.15
2022-10-18 22:18:00,,0832.4,4.98,0.00,29.8,28.2,00.0,38.6,31.6,11.3,0000.0,0014.34,0005.00,0004.13
2022-10-18 22:19:00,,0832.5,5.01,0.00,29.8,28.4,00.0,38.6,31.7,11.3,0000.0,0014.32,0004.99,0004.12
2022-10-18 22:20:00,,0832.4,4.99,0.00,29.8,28.5,00.0,38.6,31.7,11.2,0000.0,0013.87,0004.95,0004.11
2022-10-18 22:21:00,,0832.5,5.01,0.00,29.8,28.7,00.0,38.6,31.8,11.2,0000.0,0014.56,0004.91,0004.09
2022-10-18 22:22:00,,0832.5,4.99,0.00,29.9,28.8,00.0,38.6,31.8,11.2,0000.0,0015.42,0004.88,0004.08
2022-10-18 22:23:00,,0832.4,4.99,0.00,29.9,28.9,00.0,38.6,31.8,11.2,0000.0,0015.57,0004.91,0004.08
2022-10-18 22:24:00,,0832.4,4.99,0.00,29.9,28.9,00.0,38.6,31.9,11.1,0000.0,0016.15,0004.93,0004.07
2022-10-18 22:25:00,,0832.5,5.01,0.00,30.0,29.0,00.0,38.6,31.9,11.1,0000.0,0015.78,0004.88,0004.06
2022-10-18 22:26:00,,0832.5,4.98,0.00,30.0,29.1,00.0,38.7,31.9,11.2,0000.0,0015.45,0004.88,0004.04
2022-10-18 22:27:00,,0832.5,5.01,0.00,30.1,29.1,00.0,38.7,32.0,11.1,0000.0,0014.77,0004.89,0004.02
2022-10-18 22:28:00,,0832.5,5.00,0.00,30.1,28.0,00.0,38.7,31.9,11.1,0000.0,0014.36,0004.85,0004.01
2022-10-18 22:29:00,,0832.5,5.02,0.00,30.0,26.5,00.0,38.6,31.7,11.1,0000.0,0014.54,0004.82,0004.00
2022-10-18 22:30:00,,0832.5,4.98,0.00,29.9,26.3,00.0,38.6,31.6,11.4,0000.0,0014.76,0004.84,0004.00
2022-10-18 22:31:00,,0832.4,5.02,0.00,29.8,26.5,00.0,38.6,31.4,11.4,0000.0,0015.72,0004.89,0004.00
2022-10-18 22:32:00,,0832.4,4.99,0.00,29.7,26.8,00.0,38.5,31.4,11.5,0000.0,0015.32,0004.88,0003.99
2022-10-18 22:33:00,,0832.4,5.00,0.00,29.7,27.2,00.0,38.5,31.4,11.5,0000.0,0015.80,0004.86,0003.98
2022-10-18 22:34:00,,0832.5,5.00,0.00,29.7,27.5,00.0,38.5,31.4,11.5,0000.0,0015.78,0004.84,0003.97
2022-10-18 22:35:00,,0832.5,5.00,0.00,29.7,27.8,00.0,38.5,31.5,11.3,0000.0,0015.83,0004.83,0003.97
2022-10-18 22:36:00,,0832.5,5.00,0.00,29.7,28.0,00.0,38.5,31.5,11.3,0000.0,0016.15,0004.85,0003.97
2022-10-18 22:37:00,,0832.4,5.01,0.00,29.7,28.2,00.0,38.5,31.6,11.4,0000.0,0016.24,0004.84,0003.98
2022-10-18 22:38:00,,0832.5,5.00,0.00,29.7,28.3,00.0,38.5,31.6,11.4,0000.0,0016.92,0004.89,0004.00
2022-10-18 22:39:00,,0832.5,4.98,0.00,29.8,28.5,00.0,38.5,31.6,11.4,0000.0,0016.39,0004.93,0004.02
2022-10-18 22:40:00,,0832.5,5.01,0.00,29.8,28.6,00.0,38.5,31.7,11.5,0000.0,0015.73,0004.93,0004.02
2022-10-18 22:41:00,,0832.5,4.99,0.00,29.8,28.7,00.0,38.5,31.8,11.4,0002.6,0014.76,0004.93,0004.01
2022-10-18 22:42:00,,0832.5,5.00,0.00,29.9,28.8,00.0,38.6,31.8,11.3,0003.9,0013.74,0004.90,0004.01
2022-10-18 22:43:00,,0832.4,5.01,0.00,29.9,28.9,00.0,38.6,31.9,11.3,0003.8,0013.58,0004.93,0004.02
2022-10-18 22:44:00,,0832.5,4.99,0.00,29.9,29.0,00.0,38.6,31.9,11.3,0003.7,0013.26,0004.97,0004.02
2022-10-18 22:45:00,,0832.5,5.01,0.00,30.0,29.0,00.0,38.6,31.9,11.3,0002.9,0013.12,0004.96,0004.02
2022-10-18 22:46:00,,0832.5,5.00,0.00,30.0,29.1,00.0,38.7,32.0,11.3,0003.0,0012.30,0004.93,0004.02
2022-10-18 22:47:00,,0832.5,5.00,0.00,30.0,29.2,00.0,38.7,32.0,11.2,0002.4,0012.72,0004.96,0004.02
2022-10-18 22:48:00,,0832.5,5.01,0.00,30.1,29.0,00.0,38.7,32.0,11.2,0002.4,0013.10,0004.99,0004.03
2022-10-18 22:49:00,,0832.5,4.99,0.00,30.0,27.6,00.0,38.7,31.9,11.1,0002.1,0013.19,0004.93,0004.01
2022-10-18 22:50:00,,0832.5,5.00,0.00,30.0,26.9,00.0,38.6,31.8,11.2,0000.7,0014.01,0004.97,0004.02
2022-10-18 22:51:00,,0832.5,5.00,0.00,29.9,27.0,00.0,38.6,31.6,11.2,0000.5,0014.90,0005.02,0004.03
2022-10-18 22:52:00,,0832.4,5.02,0.00,29.9,27.2,00.0,38.6,31.5,11.3,0000.0,0015.04,0005.02,0004.03
2022-10-18 22:53:00,,0832.4,4.99,0.00,29.8,27.5,00.0,38.6,31.6,11.4,0000.0,0015.51,0005.02,0004.02
2022-10-18 22:54:00,,0832.5,5.00,0.00,29.8,27.8,00.0,38.6,31.6,11.4,0000.0,0015.54,0005.01,0004.01
2022-10-18 22:55:00,,0832.4,5.00,0.00,29.8,28.1,00.0,38.6,31.7,11.5,0000.0,0014.60,0004.99,0004.01
2022-10-18 22:56:00,,0832.4,5.00,0.00,29.8,28.3,00.0,38.6,31.7,11.6,0000.0,0015.66,0005.00,0004.00
2022-10-18 22:57:00,,0832.4,5.00,0.00,29.8,28.5,00.0,38.6,31.8,11.4,0000.0,0016.53,0005.00,0003.99
2022-10-18 22:58:00,,0832.5,4.99,0.00,29.9,28.6,00.0,38.6,31.8,11.4,0000.0,0016.29,0004.97,0003.98
2022-10-18 22:59:00,,0832.5,5.01,0.00,29.9,28.7,00.0,38.6,31.8,11.3,0000.0,0017.02,0004.94,0003.96
